Stations météo

réclame
Mon MeteoGroup
Capo Palinuro, Italie (16310): Température de l'air & dewpoint: 18.10.2017 09:00:00 - 24.10.2017 09:00:00 (CEST)Capo Palinuro, Italie (16310): Vitesse du vent: 18.10.2017 09:00:00 - 24.10.2017 09:00:00 (CEST)Capo Palinuro, Italie (16310): Direction du vent: 18.10.2017 09:00:00 - 24.10.2017 09:00:00 (CEST)Capo Palinuro, Italie (16310): reduced air pressure: 18.10.2017 09:00:00 - 24.10.2017 09:00:00 (CEST)Capo Palinuro, Italie (16310): visibility: 18.10.2017 09:00:00 - 24.10.2017 09:00:00 (CEST)Capo Palinuro, Italie (16310): Ensoleillement: 18.10.2017 09:00:00 - 24.10.2017 09:00:00 (CEST)
Date & Time tt [°C] td [°C] ff [km/h] ff [knt] dd ppp [hPa] vv [km] sd [min]
24.10.2017 09:00:00 16,2 11,2 26 14 WNW 1010,7 20 0
24.10.2017 08:00:00 15,2 11,2 26 14 WNW 1010,7 20 0
24.10.2017 07:00:00 15,4 10,6 28 15 W 1010,6 20 -
24.10.2017 06:00:00 15,6 10,6 26 14 W 1010,6 20 -
24.10.2017 05:00:00 15,8 10,4 15 8 W 1010,8 20 -
24.10.2017 04:00:00 15,8 10,4 16 9 WSW 1010,8 20 -
24.10.2017 03:00:00 16,0 10,5 13 7 WSW 1010,8 20 -
24.10.2017 02:00:00 16,0 10,5 22 12 WSW 1010,9 20 -
24.10.2017 01:00:00 16,0 11,2 18 10 W 1011,2 20 -
24.10.2017 00:00:00 16,0 11,4 21 11 NW 1011,0 20 -
23.10.2017 23:00:00 16,2 10,7 24 13 WNW 1010,7 20 -
23.10.2017 22:00:00 16,8 10,9 24 13 NNW 1010,6 20 -
23.10.2017 21:00:00 17,0 10,8 21 11 NW 1010,1 20 -
23.10.2017 20:00:00 17,0 10,6 15 8 NNW 1009,7 20 -
23.10.2017 19:00:00 17,4 11,2 16 9 WNW 1009,1 20 -
23.10.2017 18:00:00 18,2 11,5 26 14 WNW 1008,4 20 30
23.10.2017 17:00:00 18,6 11,2 29 16 WNW 1008,1 20 60
23.10.2017 16:00:00 19,0 10,3 28 15 NW 1007,8 20 60
23.10.2017 15:00:00 18,4 10,0 18 10 WNW 1007,5 20 60
23.10.2017 14:00:00 19,8 11,8 31 17 NW 1007,2 20 42
23.10.2017 13:00:00 20,0 12,2 34 18 NW 1007,5 20 60
23.10.2017 12:00:00 20,0 13,9 28 15 WNW 1007,9 20 48
23.10.2017 11:00:00 19,4 13,4 13 7 SSW 1008,1 20 60
23.10.2017 10:00:00 17,2 12,7 31 17 WNW 1007,9 15 60
23.10.2017 09:00:00 17,2 11,7 41 22 NW 1008,6 15 0
23.10.2017 08:00:00 19,0 13,4 42 23 WNW 1009,0 15 0
23.10.2017 07:00:00 19,0 13,8 26 14 W 1009,7 15 -
23.10.2017 06:00:00 19,0 14,1 34 18 ENE 1010,3 15 -
23.10.2017 05:00:00 19,0 14,1 39 21 WNW 1011,4 15 -
23.10.2017 04:00:00 19,2 15,3 29 16 WNW 1011,6 15 -
23.10.2017 03:00:00 19,0 13,6 31 17 W 1012,4 15 -
23.10.2017 02:00:00 19,6 15,7 28 15 W 1012,5 15 -
23.10.2017 01:00:00 20,0 16,4 29 16 W 1012,8 15 -
23.10.2017 00:00:00 20,2 16,7 37 20 WSW 1013,3 15 -
22.10.2017 23:00:00 20,0 16,7 29 16 WSW 1013,7 15 -
22.10.2017 22:00:00 20,0 16,8 9 5 SSW 1014,5 10 -
22.10.2017 21:00:00 20,0 16,8 8 4 SSW 1015,0 10 -
22.10.2017 20:00:00 20,2 17,5 15 8 SSW 1015,6 10 -
22.10.2017 19:00:00 21,4 18,8 16 9 SSW 1015,8 15 -
22.10.2017 18:00:00 21,8 19,0 11 6 SSW 1016,4 10 0
22.10.2017 17:00:00 22,0 19,4 15 8 SSE 1017,5 10 0
22.10.2017 16:00:00 23,0 19,4 15 8 SSW 1017,7 10 18
22.10.2017 15:00:00 23,2 19,2 18 10 S 1018,7 10 48
22.10.2017 14:00:00 23,2 18,3 13 7 SSE 1019,4 10 60
22.10.2017 13:00:00 22,0 17,5 13 7 SE 1019,7 10 60
22.10.2017 12:00:00 22,0 17,4 11 6 SSW 1019,7 10 60
22.10.2017 11:00:00 21,4 17,0 15 8 SSE 1020,0 12 60
22.10.2017 10:00:00 19,4 16,2 15 8 ESE 1020,4 15 60
22.10.2017 09:00:00 19,0 16,2 15 8 SSE 1020,3 15 0
22.10.2017 08:00:00 18,8 16,6 13 7 SSE 1020,2 15 0
22.10.2017 07:00:00 18,8 16,2 15 8 SSE 1020,2 20 -
22.10.2017 06:00:00 18,8 16,6 11 6 SSE 1020,2 20 -
22.10.2017 05:00:00 18,6 16,4 15 8 NW 1020,3 20 -
22.10.2017 04:00:00 18,8 16,2 11 6 NNE 1020,4 20 -
22.10.2017 03:00:00 18,6 15,1 11 6 WNW 1020,4 20 -
22.10.2017 02:00:00 18,8 15,3 11 6 NNE 1020,4 20 -
22.10.2017 01:00:00 18,4 14,7 9 5 NNW 1020,4 20 -
22.10.2017 00:00:00 18,6 15,1 11 6 WNW 1020,4 20 -
21.10.2017 23:00:00 19,4 16,8 11 6 WNW 1020,4 20 -
21.10.2017 22:00:00 20,0 17,2 9 5 W 1020,3 20 -
21.10.2017 21:00:00 20,0 18,0 11 6 NNW 1020,2 20 -
21.10.2017 20:00:00 20,0 18,0 9 5 N 1020,2 20 -
21.10.2017 19:00:00 20,0 16,4 4 2 N 1020,5 20 -
21.10.2017 18:00:00 22,0 15,6 4 2 NNE 1020,4 20 60
21.10.2017 17:00:00 22,8 16,6 5 3 N 1020,3 20 60
21.10.2017 16:00:00 23,0 16,8 5 3 NNE 1020,5 20 60
21.10.2017 15:00:00 23,0 16,8 8 4 NNE 1020,5 20 60
21.10.2017 14:00:00 23,0 16,1 4 2 N 1020,5 20 60
21.10.2017 13:00:00 22,0 15,6 5 3 N 1020,5 20 60
21.10.2017 12:00:00 22,0 14,9 4 2 N 1020,3 20 60
21.10.2017 11:00:00 21,8 14,5 8 4 N 1020,3 20 60
21.10.2017 10:00:00 20,2 12,9 4 2 N 1019,9 20 60
21.10.2017 09:00:00 19,2 12,0 0 0 N 1019,9 20 60
21.10.2017 08:00:00 18,8 12,6 9 5 N 1019,8 20 -
21.10.2017 07:00:00 19,0 13,0 4 2 WNW 1019,7 20 -
21.10.2017 06:00:00 19,0 13,0 5 3 WNW 1019,7 20 -
21.10.2017 05:00:00 19,2 13,2 8 4 W 1019,7 20 -
21.10.2017 04:00:00 19,2 13,2 5 3 NW 1019,7 20 -
21.10.2017 03:00:00 19,6 15,0 8 4 W 1019,6 20 -
21.10.2017 02:00:00 19,6 15,0 4 2 NW 1019,7 20 -
21.10.2017 01:00:00 19,4 13,6 4 2 WNW 1019,6 20 -
21.10.2017 00:00:00 20,0 13,5 8 4 WNW 1019,6 20 -
20.10.2017 23:00:00 20,2 13,7 5 3 W 1019,6 20 -
20.10.2017 22:00:00 20,2 12,7 11 6 WNW 1019,1 20 -
20.10.2017 21:00:00 20,0 12,5 8 4 WSW 1018,9 20 -
20.10.2017 20:00:00 20,2 17,0 11 6 SSW 1018,8 20 -
20.10.2017 19:00:00 20,4 18,0 9 5 WNW 1018,7 20 -
20.10.2017 18:00:00 21,4 18,2 11 6 N 1018,6 20 48
20.10.2017 17:00:00 22,4 17,1 13 7 SW 1018,4 20 60
20.10.2017 16:00:00 22,8 15,9 11 6 N 1018,4 20 60
20.10.2017 15:00:00 23,6 15,4 13 7 S 1018,4 20 60
20.10.2017 14:00:00 23,4 -30,0 13 7 WSW 1018,4 20 60
20.10.2017 13:00:00 23,6 15,1 11 6 SSE 1018,5 20 60
20.10.2017 12:00:00 22,8 14,1 9 5 SSW 1018,4 18 60
20.10.2017 11:00:00 22,2 10,4 11 6 N 1018,1 18 60
20.10.2017 10:00:00 22,0 11,7 5 3 S 1017,8 15 60
20.10.2017 09:00:00 20,0 12,5 8 4 NNE 1017,7 15 60
20.10.2017 08:00:00 19,0 13,4 8 4 ENE 1017,7 15 18
20.10.2017 07:00:00 18,4 13,3 8 4 NNE 1017,7 15 -
20.10.2017 06:00:00 18,0 13,5 5 3 NE 1017,8 15 -
20.10.2017 05:00:00 18,2 14,7 8 4 NNE 1017,7 15 -
20.10.2017 04:00:00 18,2 14,3 5 3 NNE 1017,7 15 -
20.10.2017 03:00:00 19,0 16,6 8 4 NE 1017,7 15 -
20.10.2017 02:00:00 18,8 16,2 5 3 NNE 1017,7 15 -
20.10.2017 01:00:00 18,8 15,3 9 5 NE 1017,8 15 -
20.10.2017 00:00:00 19,0 15,9 9 5 NNE 1017,8 15 -
19.10.2017 23:00:00 19,2 16,4 8 4 NW 1017,8 15 -
19.10.2017 22:00:00 19,4 16,8 5 3 N 1017,8 15 -
19.10.2017 21:00:00 19,4 17,2 9 5 NNE 1017,8 15 -
19.10.2017 20:00:00 20,0 17,8 8 4 NNE 1017,6 20 -
19.10.2017 19:00:00 20,0 17,8 9 5 NNW 1017,7 20 18
19.10.2017 18:00:00 20,4 18,0 5 3 NNW 1017,8 20 60
19.10.2017 17:00:00 22,0 18,4 5 3 NNW 1017,8 20 60
19.10.2017 16:00:00 22,8 18,8 5 3 N 1018,0 20 60
19.10.2017 15:00:00 23,2 18,5 8 4 WSW 1018,2 20 60
19.10.2017 14:00:00 23,0 17,2 8 4 SSW 1018,4 20 60
19.10.2017 13:00:00 23,2 17,0 5 3 SSW 1018,5 20 60
19.10.2017 12:00:00 23,0 17,9 4 2 NNE 1018,4 20 60
19.10.2017 11:00:00 22,2 16,9 5 3 S 1018,5 20 60
19.10.2017 10:00:00 20,0 16,0 5 3 SW 1018,6 20 60
19.10.2017 09:00:00 18,8 16,0 0 0 N 1018,5 20 24
19.10.2017 08:00:00 18,8 16,2 5 3 NW 1018,6 20 0
19.10.2017 07:00:00 19,2 16,6 8 4 WNW 1018,6 15 -
19.10.2017 06:00:00 19,2 16,4 4 2 SW 1018,6 15 -
19.10.2017 05:00:00 19,2 16,4 5 3 WSW 1018,7 15 -
19.10.2017 04:00:00 19,0 16,2 0 0 N 1018,8 20 -
19.10.2017 03:00:00 19,0 16,2 0 0 N 1019,0 20 -
19.10.2017 02:00:00 19,0 16,2 0 0 N 1019,1 20 -
19.10.2017 01:00:00 19,0 16,4 0 0 N 1019,1 20 -
19.10.2017 00:00:00 19,0 16,4 0 0 N 1019,1 20 -
18.10.2017 23:00:00 19,0 16,4 0 0 N 1019,1 20 -
18.10.2017 22:00:00 19,0 16,4 0 0 N 1019,1 20 -
18.10.2017 21:00:00 19,8 17,6 0 0 N 1019,1 20 -
18.10.2017 20:00:00 20,0 17,6 0 0 N 1019,1 20 -
18.10.2017 19:00:00 20,0 17,6 0 0 N 1019,1 20 -
18.10.2017 18:00:00 22,0 18,4 0 0 N 1019,6 20 42
18.10.2017 17:00:00 22,6 18,0 5 3 WNW 1019,7 20 60
18.10.2017 16:00:00 22,6 17,5 8 4 W 1020,0 20 60
18.10.2017 15:00:00 22,4 18,8 8 4 NW 1020,5 20 60
18.10.2017 14:00:00 22,8 18,4 8 4 W 1021,2 20 48
18.10.2017 13:00:00 23,2 18,1 9 5 WNW 1021,5 20 54
18.10.2017 12:00:00 22,0 17,0 8 4 NW 1021,6 20 60
18.10.2017 11:00:00 20,4 16,4 5 3 NNW 1021,7 20 54
18.10.2017 10:00:00 19,0 15,7 11 6 WNW 1021,8 20 24
18.10.2017 09:00:00 19,0 16,0 9 5 WNW 1021,8 20 60

tt = Température de l'air
td = dewpoint
ff = Vitesse du vent
dd = Direction du vent
ppp = reduced air pressure
vv = visibility
sd = Ensoleillement

stations d'obs. à proximité